Theta_e
317 317 316 316 315 315 316 316 317 317 318 318 318 318 319 319 319 319 319 318 318 318 319 320 321 323 314 302 304 321 342 337 319 314 312 310 305 303 299 299 302 299 303 306 314 314 312
316 316 316 315 315 315 315 315 316 316 316 317 317 317 317 318 318 318 318 318 317 317 318 319 321 323 307 294 309 328 322 319 313 310 308 309 306 302 300 298 298 302 302 303 303 309 311
316 315 315 315 315 314 315 314 314 315 316 316 316 316 316 317 317 317 317 317 316 317 317 318 321 320 306 299 311 319 314 310 314 314 312 314 311 306 302 300 301 302 300 302 304 303 309
315 315 315 314 314 314 314 314 314 314 315 316 316 315 316 316 316 316 316 316 316 317 318 319 322 313 299 310 309 309 308 309 314 316 316 318 312 305 301 302 303 299 297 295 301 304 307
315 315 314 314 314 314 314 314 314 314 314 314 315 315 315 315 316 316 315 315 316 318 319 320 313 308 299 318 313 314 312 310 310 310 313 318 308 302 303 297 294 294 291 292 298 302 303
314 314 314 314 314 314 314 314 314 314 314 314 314 314 314 314 315 314 314 314 316 317 319 321 316 304 306 310 312 314 313 313 309 307 307 306 301 297 295 294 289 291 290 292 296 302 301
314 314 314 314 314 314 314 314 314 314 314 314 315 314 314 314 314 314 310 309 301 302 306 303 305 307 310 314 319 312 313 309 307 304 298 301 296 293 296 296 298 297 294 295 298 302 300
313 314 313 313 313 313 314 314 314 314 314 314 314 315 315 314 314 313 309 304 304 304 297 305 308 310 313 314 309 313 313 304 301 297 300 297 294 300 301 300 299 298 296 296 300 303 300
313 313 313 313 313 313 313 313 313 313 313 313 313 314 314 314 313 310 308 311 310 306 295 301 304 304 305 311 309 309 308 305 300 297 297 294 299 304 302 299 298 296 295 297 297 302 302
313 313 312 313 313 313 313 313 313 314 314 313 313 313 314 313 308 307 307 314 313 306 293 302 300 304 308 310 306 313 313 307 301 298 298 296 302 302 300 299 299 292 300 301 301 297 293
312 312 312 313 313 313 312 313 313 313 313 313 312 313 313 313 304 305 311 314 312 305 286 305 301 308 305 304 305 306 310 304 300 300 298 296 298 299 299 300 302 298 303 300 301 296 292
311 311 312 313 312 312 312 312 313 313 312 312 312 313 312 308 304 309 312 313 307 294 288 299 304 301 300 302 303 305 305 307 305 300 300 298 303 300 300 304 304 304 300 298 295 294 287
311 310 311 312 312 312 311 312 312 312 312 312 311 311 310 311 302 310 312 306 292 287 299 296 297 300 300 299 300 302 300 299 296 291 291 297 299 301 304 299 303 300 294 289 288 287 287
311 311 311 311 311 311 311 312 312 312 311 311 310 309 309 311 309 310 305 296 287 297 296 302 300 299 297 299 299 299 298 294 298 296 292 290 290 298 303 299 297 295 295 290 285 287 290
310 311 311 310 311 311 311 311 311 311 310 309 308 306 308 311 312 307 300 291 290 296 300 299 298 294 294 298 298 297 296 297 298 297 292 290 292 302 304 304 300 296 292 297 293 293 291
310 310 310 310 311 311 311 311 312 312 310 309 302 304 307 313 311 305 295 292 295 303 303 301 292 295 291 294 294 294 294 302 299 306 306 295 290 300 302 303 303 298 300 291 290 286 285
310 309 310 310 310 311 311 312 312 311 310 308 305 303 310 312 309 299 290 292 299 304 303 299 295 294 294 293 294 293 294 299 304 301 306 302 293 296 298 296 296 295 293 292 292 291 288
309 309 309 310 310 311 311 311 311 311 308 306 301 298 310 308 295 294 292 298 301 302 303 300 299 298 295 295 293 293 294 298 303 304 300 302 298 291 295 301 303 299 295 294 291 288 291
309 308 309 310 310 311 311 311 311 311 309 304 297 300 310 306 290 291 295 300 302 300 300 299 297 299 298 293 290 295 296 301 302 302 302 302 295 290 293 295 300 297 299 296 294 293 290
309 309 309 309 310 311 311 311 311 311 309 303 298 295 300 301 297 294 294 295 297 303 301 301 298 298 295 292 293 292 294 300 305 305 313 305 296 294 291 293 296 295 301 298 296 292 293
308 308 309 308 310 311 310 310 311 310 309 304 298 296 299 291 295 295 295 296 295 296 300 300 296 297 295 290 293 292 296 298 302 305 305 300 291 295 297 301 300 301 300 299 297 298 296
308 309 309 308 308 310 310 311 311 310 308 300 296 296 298 295 296 295 294 292 296 298 297 296 295 298 298 293 294 293 296 295 297 301 299 299 293 296 292 301 300 298 301 302 300 300 303
308 309 309 307 308 309 311 311 312 310 307 299 303 304 300 295 294 292 292 295 296 298 299 300 299 297 296 298 301 301 301 301 300 297 296 297 296 292 292 300 301 297 302 303 299 304 311
309 308 307 307 307 309 310 311 312 311 308 301 302 302 297 292 294 294 297 298 297 298 296 299 301 298 302 308 307 301 300 301 302 301 302 297 294 293 291 300 291 300 308 309 310 312 313
308 307 306 306 307 308 309 311 312 310 311 301 301 305 302 295 295 296 296 296 296 298 297 299 301 304 305 304 296 292 293 296 300 301 301 300 295 290 292 292 299 305 308 308 307 307 317
308 307 307 306 306 307 309 310 312 313 311 302 300 308 305 298 293 299 296 296 293 293 294 299 303 305 305 298 294 289 290 293 295 297 305 300 299 294 296 291 291 301 311 317 314 303 319
308 307 307 306 307 306 309 309 312 314 311 303 302 308 306 298 298 297 293 294 299 296 295 299 300 299 302 295 293 292 292 298 292 293 297 297 296 292 293 294 301 310 315 316 300 304 319
308 307 307 307 307 306 308 310 312 314 312 306 302 308 306 300 300 301 301 297 297 296 294 299 297 301 297 293 292 294 294 297 295 298 296 299 297 297 298 296 294 314 313 307 312 320 322
307 307 307 307 307 307 307 311 313 314 312 311 301 307 309 303 298 302 304 305 304 303 300 301 299 297 299 298 300 300 297 299 295 288 306 298 300 296 302 301 311 316 314 318 319 321 320
Wind_Speed
14 14 13 16 15 16 16 15 14 14 16 16 16 16 17 17 17 17 18 19 19 20 19 17 17 19 9 6 9 3 9 6 4 5 2 2 3 3 2 3 6 5 6 7 14 14 9
12 13 15 15 15 16 16 16 16 16 16 16 17 18 19 18 19 19 17 17 18 17 17 16 15 17 3 4 5 7 7 6 2 3 1 3 2 2 5 3 4 5 7 10 2 9 6
12 14 15 15 15 16 17 17 18 18 17 17 18 20 20 21 21 21 20 18 19 17 17 15 12 4 1 16 3 4 2 3 4 4 3 6 4 1 2 6 1 4 8 10 7 3 7
13 14 14 14 14 15 16 17 17 17 18 18 19 20 22 23 23 23 22 21 21 21 18 13 5 1 9 6 3 6 3 8 7 5 4 8 2 0 3 2 9 5 4 5 9 5 7
15 15 15 15 15 16 16 17 18 19 20 19 18 19 21 23 23 24 25 25 23 16 10 6 2 2 11 11 3 9 8 6 5 4 6 5 4 1 7 4 6 6 3 4 11 4 3
15 15 15 16 16 16 17 18 19 19 20 21 21 21 22 23 23 23 24 24 10 6 3 5 4 2 5 3 5 4 7 5 5 1 3 1 6 2 4 5 6 6 3 4 6 9 2
14 14 16 17 17 17 18 19 19 20 21 22 21 22 24 24 24 22 13 5 7 6 2 7 4 6 3 8 6 4 5 5 2 2 5 2 4 8 11 7 5 5 4 7 7 9 2
13 15 16 17 18 18 19 20 21 21 22 23 24 23 25 25 25 24 2 5 1 6 9 10 16 17 19 9 7 8 7 5 4 5 2 2 9 12 7 7 7 7 8 15 14 13 8
13 15 15 16 17 18 19 19 20 21 22 23 24 24 25 27 29 4 4 3 8 6 2 8 6 6 7 9 7 7 7 7 4 5 6 8 10 6 8 9 7 8 8 15 12 9 4
12 13 14 15 16 17 19 19 19 20 21 22 22 24 24 30 6 6 5 11 12 0 4 4 3 6 4 6 5 8 6 6 2 8 4 7 10 11 9 10 7 8 8 13 11 3 8
12 13 14 14 15 17 18 19 20 21 21 21 21 21 20 16 4 4 7 12 11 5 6 3 2 0 2 7 2 2 4 3 8 7 6 9 3 8 12 15 6 13 12 11 12 6 0
13 14 15 15 16 17 18 18 20 21 22 22 21 20 17 2 3 8 9 15 4 5 5 9 7 5 4 5 5 5 2 4 4 4 4 8 6 4 7 13 9 10 6 5 4 4 1
12 14 15 15 16 17 18 19 20 21 22 23 24 23 8 1 5 6 11 5 6 7 8 9 7 7 4 2 5 3 3 5 6 1 5 9 11 7 5 9 13 3 5 5 5 2 6
12 13 14 15 16 17 18 19 20 21 22 23 27 23 3 5 7 6 5 6 10 4 6 4 8 8 5 11 5 9 5 4 5 5 2 2 10 5 8 8 11 8 10 7 7 3 3
12 13 14 16 16 17 19 20 21 22 23 21 20 5 5 6 6 3 6 7 3 5 10 8 6 6 7 8 8 10 7 5 4 3 7 7 11 12 18 10 8 11 6 9 6 3 1
12 14 14 15 15 17 18 19 21 23 24 22 3 4 5 6 4 6 6 1 3 4 7 6 6 5 6 8 9 11 6 4 12 4 11 7 14 10 16 2 13 10 5 3 3 8 5
11 14 15 14 16 17 18 19 21 23 25 17 3 5 5 6 5 6 4 4 4 11 11 6 2 3 4 7 5 7 7 11 5 21 7 5 3 9 8 10 16 6 3 3 6 6 6
11 13 14 15 15 16 17 18 20 21 24 8 3 3 5 5 5 2 1 5 9 8 8 6 6 7 3 7 6 5 6 7 18 15 17 4 5 6 16 21 8 7 8 10 7 7 3
9 12 13 13 14 16 17 17 18 18 13 4 3 3 5 6 3 4 6 4 4 10 7 5 4 4 3 3 6 5 9 13 17 15 2 6 4 6 15 9 5 7 9 5 6 6 8
10 11 13 13 13 14 16 16 17 16 12 2 3 4 5 5 1 3 6 4 6 8 6 3 5 4 5 6 4 8 17 9 14 14 5 1 4 8 13 13 4 5 15 12 8 6 7
10 10 11 12 13 14 15 16 16 14 11 2 1 2 2 4 4 4 3 3 4 5 2 6 4 5 5 4 7 7 14 10 15 13 3 2 6 5 21 32 22 12 7 13 9 13 10
10 11 12 12 13 14 14 14 15 13 10 2 1 3 5 3 4 5 3 3 4 6 8 8 6 13 12 6 8 16 6 6 8 4 5 4 5 10 28 22 21 13 18 10 12 8 4
9 10 10 11 13 14 15 16 14 10 5 2 3 3 4 4 4 2 4 4 8 6 7 6 15 15 14 14 14 15 11 15 12 8 8 5 2 8 11 13 13 13 7 5 8 7 13
9 8 9 11 12 12 14 15 14 8 5 1 3 2 2 4 1 3 10 10 10 5 8 15 16 12 6 16 16 7 11 19 14 15 10 7 4 4 12 5 12 5 3 6 7 5 5
9 9 9 10 11 12 14 15 15 9 3 3 2 3 3 3 3 9 8 5 10 13 10 14 16 6 13 8 6 7 6 5 10 24 13 14 9 5 7 5 1 2 6 3 5 3 8
8 9 9 10 11 12 13 14 15 13 4 2 2 2 3 3 5 4 4 5 8 6 6 5 15 13 5 3 3 4 4 4 8 15 20 15 16 10 6 3 6 2 6 8 2 4 5
7 8 9 10 11 12 13 14 13 14 5 3 3 1 2 2 6 1 3 3 3 4 7 8 8 10 2 2 3 4 4 1 4 10 9 6 6 16 11 7 3 7 6 8 4 9 14
7 7 8 10 11 12 13 13 11 12 3 4 4 3 2 3 6 10 10 9 7 3 5 7 8 3 5 3 1 3 2 1 3 9 9 6 4 7 6 2 2 4 8 4 6 11 17
7 7 8 9 10 11 12 12 11 9 4 3 3 3 1 3 7 3 11 14 14 19 9 5 5 4 5 4 4 5 5 1 5 4 4 4 3 6 4 4 12 14 11 0 6 18 9
Wind_Direction
25 23 22 23 12 8 4 359 357 356 351 348 343 339 333 327 322 319 320 318 321 320 318 321 328 327 348 1 251 180 141 146 151 151 186 95 47 121 231 253 351 206 283 204 257 285 256
27 25 23 20 12 7 3 358 355 353 350 344 339 335 333 327 322 320 319 317 313 309 309 312 323 322 350 304 266 139 136 133 209 198 146 140 204 221 268 260 146 288 301 287 258 239 247
23 24 22 17 10 3 358 357 354 351 347 345 339 333 329 325 323 321 318 309 298 300 301 302 314 303 332 238 71 84 203 223 197 196 237 188 210 94 266 324 197 282 333 328 308 302 238
23 21 17 12 6 1 356 353 351 349 346 343 338 333 329 328 324 320 315 311 304 294 291 289 295 223 250 252 279 272 246 277 259 249 230 278 250 166 168 266 2 7 47 351 290 352 277
21 16 11 7 3 358 355 352 350 348 346 344 338 332 326 323 322 320 316 311 296 287 255 260 136 178 265 299 189 234 176 228 217 246 242 275 58 80 7 65 7 357 231 245 311 200 274
18 14 7 5 359 354 352 352 349 346 344 342 338 333 328 324 322 319 315 303 287 328 140 194 247 328 271 305 269 202 179 208 210 297 321 340 47 51 14 85 212 232 272 280 242 283 15
14 7 6 2 356 353 350 349 346 343 341 339 337 334 327 325 322 320 335 2 11 3 13 201 207 269 302 354 293 247 173 175 94 66 190 263 103 221 223 211 200 254 260 266 273 279 295
10 7 3 359 357 352 350 347 346 343 341 338 336 334 329 326 321 321 175 35 23 232 300 244 250 256 275 314 309 308 116 140 141 229 92 317 225 225 215 242 228 242 257 269 284 263 178
9 7 0 354 351 350 349 345 343 340 338 336 333 333 332 327 321 357 305 262 313 351 358 291 212 213 232 158 218 270 146 169 158 188 215 189 236 193 221 262 251 252 226 261 240 303 260
6 2 358 353 349 346 344 344 341 337 335 335 334 334 334 330 44 330 325 324 328 37 49 267 242 271 154 168 273 223 207 152 177 216 211 229 244 244 246 240 207 255 215 253 268 249 259
2 359 357 350 346 344 341 341 340 338 336 335 334 332 336 338 277 335 262 319 307 70 64 184 143 293 110 145 307 326 166 116 190 214 110 244 248 213 243 240 213 246 265 242 256 213 177
359 358 353 346 345 344 342 341 340 337 336 333 332 328 337 349 306 243 312 310 39 43 59 357 29 50 45 310 304 315 118 122 176 203 243 244 268 242 252 261 239 251 304 274 50 121 39
357 353 348 345 344 343 342 343 340 337 335 332 330 322 313 273 259 324 326 14 45 60 331 0 351 329 314 263 265 212 231 164 192 262 286 295 279 287 261 290 288 227 77 297 302 1 205
354 349 346 345 343 344 344 343 341 337 334 333 326 319 233 222 261 344 359 49 65 349 38 336 346 325 22 26 338 341 309 298 277 147 165 218 305 222 241 203 224 226 175 190 197 240 233
351 349 347 347 344 345 344 344 342 340 335 335 321 331 319 271 255 111 53 51 149 353 359 356 346 25 345 18 346 13 360 283 9 226 210 207 248 252 256 260 154 270 206 198 155 207 72
350 348 348 345 344 345 346 345 345 342 338 341 359 343 285 293 353 49 67 275 348 326 350 32 45 39 352 333 341 11 322 321 335 68 22 313 284 239 262 328 279 199 196 188 348 173 217
347 348 347 346 344 345 347 347 347 345 339 334 31 18 264 344 54 44 106 256 325 5 25 348 63 307 330 338 359 323 253 324 11 338 25 311 250 294 282 198 245 302 238 77 120 147 186
348 347 345 346 343 345 347 347 348 350 343 31 5 23 284 41 41 40 47 345 339 350 7 13 3 14 35 332 297 310 264 306 339 341 328 31 260 269 256 256 195 205 257 161 149 226 240
340 343 341 342 343 343 345 346 348 352 20 337 352 271 309 75 77 339 319 335 325 25 1 355 325 29 351 314 316 243 306 324 308 316 309 345 336 339 320 285 225 197 227 237 120 111 201
335 339 340 343 342 342 342 342 345 345 359 47 6 1 330 34 95 21 357 305 347 338 304 334 294 333 326 303 224 281 301 306 343 320 66 223 205 195 256 265 221 217 231 193 158 132 197
330 333 334 339 340 342 342 342 341 339 345 36 30 295 241 334 332 339 6 297 302 306 336 7 320 310 301 273 284 269 296 300 300 297 211 147 238 237 269 260 251 237 260 186 180 195 173
326 329 333 339 345 342 337 333 332 335 345 62 79 42 352 290 309 329 328 293 294 348 353 310 287 318 308 262 241 294 231 239 239 270 176 234 246 303 282 262 225 235 251 245 218 164 133
320 323 330 337 340 338 335 338 335 341 52 334 318 333 102 272 319 2 238 333 322 348 291 305 315 306 292 284 293 268 240 260 230 192 185 200 158 2 271 203 194 223 235 221 212 168 144
319 331 331 334 336 336 338 335 335 330 171 87 283 358 37 274 274 305 319 312 308 310 283 296 296 285 284 315 311 276 262 250 223 225 180 192 118 186 276 219 182 213 222 196 112 4 114
315 321 325 326 330 334 341 335 334 338 180 139 285 353 335 282 315 294 316 332 326 314 287 280 283 282 300 297 274 285 281 287 239 228 208 213 195 245 253 172 235 52 35 307 139 301 180
303 314 319 321 327 332 335 334 330 337 154 118 232 226 269 315 257 3 321 302 296 305 300 260 311 283 276 235 218 244 292 263 337 320 214 201 197 201 325 181 174 226 297 340 16 18 182
291 303 313 317 324 329 330 334 329 328 177 144 270 271 261 264 268 280 247 285 256 282 284 300 333 320 259 278 241 269 268 6 319 303 9 154 163 209 230 260 253 256 312 341 94 207 169
286 296 309 313 319 320 325 333 328 323 233 140 267 243 195 257 271 256 257 236 263 219 255 315 326 345 321 327 277 250 269 114 287 320 295 281 266 178 218 166 287 307 341 213 190 142 160
280 286 295 303 309 314 322 327 332 331 259 169 272 288 140 223 260 257 248 242 227 238 261 236 255 334 273 306 17 309 243 149 66 278 294 293 101 275 323 227 102 275 255 354 77 157 158